K3MV-13 Weather Reports


time (UTC)temp
F
wind
direction
speed
knots
gust
knots
rain 1hr
in
rain 24hr
in
rain mn
in
humidity
%
barometer
mb
20260509201402 59 196 0.9 0.9 0.00 0.11 0.11 64 1009.6
20260509200900 59 264 1.7 1.7 0.00 0.11 0.11 63 1009.5
20260509200359 60 218 3.5 5.2 0.00 0.11 0.11 62 1009.7
20260509195856 61 157 1.7 2.6 0.00 0.11 0.11 63 1009.6
20260509195356 60 175 0.9 1.7 0.00 0.11 0.11 64 1009.6
20260509194856 60 167 0.9 0.9 0.00 0.11 0.11 64 1009.8
20260509194353 60 274 1.7 2.6 0.00 0.11 0.11 65 1009.7
20260509193850 61 228 0.9 1.7 0.00 0.11 0.11 63 1009.9
20260509193349 60 193 0.9 0.9 0.00 0.11 0.11 69 1009.9
20260509192846 60 276 3.5 5.2 0.00 0.11 0.11 64 1009.8
20260509192342 60 240 2.6 3.5 0.00 0.11 0.11 67 1009.9
20260509191837 60 293 1.7 2.6 0.00 0.11 0.11 65 1009.9
20260509191333 60 242 2.6 5.2 0.00 0.11 0.11 68 1009.9
20260509190830 60 270 1.7 1.7 0.00 0.11 0.11 68 1010.0
20260509190327 59 190 0.0 0.9 0.00 0.11 0.11 71 1010.1
20260509185824 59 248 0.9 0.9 0.00 0.11 0.11 73 1010.0
20260509185320 59 210 1.7 2.6 0.00 0.11 0.11 75 1010.0
20260509184818 58 291 1.7 2.6 0.00 0.11 0.11 77 1010.1
20260509184315 57 2 0.0 0.0 0.00 0.11 0.11 79 1010.0
20260509183812 57 248 0.0 0.9 0.00 0.11 0.11 79 1010.2
20260509183307 56 291 1.7 1.7 0.00 0.11 0.11 80 1010.3
20260509182802 55 182 0.0 0.0 0.00 0.11 0.11 83 1010.1
20260509182300 55 344 0.0 0.0 0.00 0.11 0.11 83 1010.1
20260509181757 54 307 0.9 0.9 0.00 0.11 0.11 85 1010.0
20260509181255 54 196 0.0 0.0 0.00 0.11 0.11 85 1010.0
20260509180752 54 141 0.9 0.9 0.00 0.11 0.11 85 1010.0
20260509180248 54 187 0.9 0.9 0.00 0.11 0.11 86 1010.0
20260509175744 54 185 0.0 0.0 0.00 0.11 0.11 87 1010.1
20260509175241 54 206 0.0 0.0 0.00 0.11 0.11 87 1010.1
20260509174737 53 175 0.0 0.9 0.00 0.11 0.11 86 1010.1
20260509174232 53 200 0.0 0.0 0.00 0.11 0.11 87 1010.2
20260509173729 53 211 0.9 0.9 0.00 0.11 0.11 88 1010.2
20260509173224 53 189 0.0 0.9 0.00 0.11 0.11 87 1010.2
20260509172721 52 210 0.0 0.0 0.00 0.11 0.11 87 1010.1
20260509172217 53 184 0.9 0.9 0.00 0.11 0.11 87 1010.0
20260509171713 53 206 0.0 0.0 0.00 0.11 0.11 87 1010.1
20260509171209 53 167 0.0 0.0 0.00 0.11 0.11 86 1010.1
20260509170706 53 203 0.9 0.9 0.00 0.11 0.11 87 1010.1
20260509170202 53 196 0.9 2.6 0.00 0.11 0.11 87 1010.2
20260509165701 53 223 0.9 0.9 0.07 0.11 0.11 87 1010.1
20260509165156 53 169 0.9 1.7 0.07 0.11 0.11 87 1010.2
20260509164652 53 226 0.9 0.9 0.00 0.10 0.10 88 1010.3
20260509164148 52 219 0.0 0.9 0.00 0.10 0.10 87 1010.4
20260509163646 52 199 0.9 0.9 0.00 0.10 0.10 87 1010.2
20260509163141 52 215 1.7 1.7 0.00 0.10 0.10 87 1010.3
20260509162639 52 164 0.9 1.7 0.00 0.10 0.10 87 1010.4
20260509162134 52 216 2.6 2.6 0.00 0.10 0.10 86 1010.4
20260509161631 53 205 0.0 0.9 0.00 0.10 0.10 87 1010.4
20260509161126 53 214 1.7 1.7 0.00 0.10 0.10 89 1010.5
20260509160622 52 214 2.6 2.6 0.00 0.10 0.10 90 1010.6
20260509160118 52 207 3.5 5.2 0.00 0.10 0.10 91 1010.6
20260509155614 51 219 1.7 1.7 0.00 0.10 0.10 91 1010.6
20260509155110 51 197 1.7 2.6 0.00 0.10 0.10 91 1010.6
20260509154606 51 196 3.5 3.5 0.00 0.10 0.10 91 1010.7
20260509154104 51 201 1.7 1.7 0.00 0.10 0.10 92 1010.7
20260509153601 51 219 1.7 2.6 0.00 0.10 0.10 92 1010.8
20260509153058 51 197 0.9 1.7 0.00 0.10 0.10 92 1010.9
20260509152553 51 222 0.9 0.9 0.00 0.10 0.10 92 1010.6
20260509152051 51 219 0.9 0.9 0.00 0.10 0.10 92 1010.7
20260509151547 51 199 0.9 1.7 0.00 0.10 0.10 91 1010.7
20260509151045 51 231 1.7 1.7 0.00 0.10 0.10 91 1010.6
20260509150542 51 234 1.7 2.6 0.05 0.10 0.10 91 1010.6
20260509150041 51 186 0.9 0.9 0.05 0.10 0.10 91 1010.7
20260509145536 51 193 0.9 0.9 0.00 0.09 0.09 92 1010.5
20260509145031 51 227 0.0 0.0 0.00 0.09 0.09 92 1010.5
20260509144528 51 162 0.9 1.7 0.00 0.09 0.09 91 1010.6
20260509144026 51 205 0.9 0.9 0.00 0.09 0.09 91 1010.7
20260509143522 51 203 0.0 0.9 0.00 0.09 0.09 91 1010.8
20260509143021 51 191 1.7 1.7 0.00 0.09 0.09 91 1010.7
20260509142515 51 214 0.9 1.7 0.00 0.09 0.09 91 1010.7
20260509142011 51 223 1.7 3.5 0.00 0.09 0.09 91 1010.6
20260509141508 51 246 1.7 2.6 0.00 0.09 0.09 92 1010.7
20260509141005 51 232 1.7 2.6 0.00 0.09 0.09 92 1010.7
20260509140501 51 206 0.0 0.9 0.00 0.09 0.09 92 1010.8
20260509140000 50 215 1.7 2.6 0.00 0.09 0.09 92 1010.7
20260509135456 50 202 1.7 1.7 0.00 0.09 0.09 92 1010.5
20260509134954 50 183 1.7 1.7 0.00 0.09 0.09 92 1010.8
20260509134451 50 205 0.9 0.9 0.00 0.09 0.09 92 1010.9
20260509133949 50 163 0.9 1.7 0.00 0.09 0.09 93 1010.9
20260509133445 50 224 0.9 0.9 0.07 0.09 0.09 93 1011.2
20260509132943 50 276 1.7 2.6 0.07 0.09 0.09 92 1011.2
20260509132441 50 220 4.3 5.2 0.00 0.08 0.08 93 1011.0
20260509131938 49 210 1.7 1.7 0.05 0.08 0.08 92 1011.0
20260509131435 49 226 0.0 0.0 0.05 0.08 0.08 93 1011.2
20260509130932 49 195 0.9 1.7 0.00 0.07 0.07 93 1010.9
20260509130427 49 191 0.0 0.0 0.07 0.07 0.07 93 1011.0
20260509125924 50 196 0.0 0.9 0.07 0.07 0.07 93 1011.2
20260509125421 50 207 0.0 0.0 0.00 0.06 0.06 93 1010.9
20260509124916 49 181 0.0 0.9 0.00 0.06 0.06 93 1011.2
20260509124414 49 190 0.0 0.9 0.00 0.06 0.06 93 1011.3
20260509123912 49 192 0.9 0.9 0.00 0.06 0.06 93 1011.0
20260509123408 49 203 0.0 0.0 0.00 0.06 0.06 93 1011.2
20260509122904 49 182 0.0 0.9 0.05 0.06 0.06 93 1011.2
20260509122401 49 192 0.9 0.9 0.05 0.06 0.06 93 1011.3
20260509121858 49 213 0.9 1.7 0.07 0.05 0.05 93 1011.3
20260509121355 49 181 0.0 0.0 0.07 0.05 0.05 93 1011.3
20260509120853 49 203 1.7 1.7 0.07 0.05 0.05 92 1011.2
20260509120351 49 204 1.7 1.7 0.00 0.04 0.04 93 1011.2
20260509115848 49 203 0.9 0.9 0.00 0.04 0.04 93 1011.2
20260509115345 48 197 0.9 0.9 0.00 0.04 0.04 93 1011.3
20260509114843 48 206 0.0 0.0 0.05 0.04 0.04 93 1011.3
20260509114342 48 189 1.7 2.6 0.05 0.04 0.04 93 1011.3
20260509113841 48 210 0.9 1.7 0.00 0.03 0.03 93 1011.2
20260509113337 48 182 0.9 0.9 0.00 0.03 0.03 93 1011.5
20260509112834 48 174 0.9 0.9 0.00 0.03 0.03 93 1011.0
20260509112331 48 187 0.0 0.0 0.00 0.03 0.03 93 1011.0
20260509111828 48 190 0.9 1.7 0.00 0.03 0.03 93 1010.9
20260509111325 48 181 0.9 0.9 0.00 0.03 0.03 93 1011.2
20260509110823 48 166 0.9 0.9 0.00 0.03 0.03 92 1010.8
20260509110319 47 163 0.0 0.0 0.07 0.03 0.03 92 1010.9
20260509105817 47 164 0.0 0.0 0.07 0.03 0.03 92 1010.9
20260509105315 47 177 0.9 0.9 0.00 0.02 0.02 92 1010.8
20260509104811 47 211 2.6 3.5 0.05 0.02 0.02 91 1011.2
20260509104308 47 163 1.7 1.7 0.05 0.02 0.02 91 1011.0
20260509103806 47 185 2.6 3.5 0.05 0.02 0.02 91 1011.2
20260509103303 47 160 1.7 1.7 0.00 0.01 0.01 91 1011.4
20260509102802 48 166 2.6 2.6 0.00 0.01 0.01 90 1011.4
20260509102258 47 211 2.6 3.5 0.07 0.01 0.01 90 1011.4
20260509101754 47 189 1.7 1.7 0.07 0.01 0.01 90 1011.3
20260509101250 47 163 1.7 1.7 0.00 0.00 0.00 90 1011.3
20260509100748 47 182 1.7 1.7 0.00 0.00 0.00 89 1011.5
20260509100246 47 156 0.9 0.9 0.05 0.00 0.00 89 1011.4
20260509095742 47 161 0.9 0.9 0.05 0.04 0.04 89 1011.3
20260509095239 47 146 0.0 0.0 0.07 0.03 0.03 88 1011.3
20260509094736 47 194 0.0 0.0 0.07 0.03 0.03 88 1011.4
20260509094233 48 194 0.0 0.0 0.00 0.02 0.02 87 1011.7
20260509093731 48 194 0.0 0.0 0.07 0.02 0.02 86 1011.6
20260509093228 48 251 0.0 0.9 0.07 0.02 0.02 86 1011.5
20260509092726 47 244 2.6 3.5 0.00 0.01 0.01 86 1011.6
20260509092224 47 196 0.0 0.0 0.05 0.01 0.01 86 1011.8
20260509091722 47 182 0.0 0.0 0.05 0.01 0.01 86 1011.5
20260509091217 47 182 0.0 0.9 0.05 0.01 0.01 85 1011.4
20260509090715 47 186 0.0 0.0 0.00 0.00 0.00 84 1011.5
20260509090212 47 186 0.0 0.0 0.00 0.00 0.00 84 1011.0
20260509085710 47 186 0.0 0.0 0.00 0.00 0.00 83 1011.2
20260509085207 48 187 0.0 0.9 0.00 0.00 0.00 82 1010.9
20260509084704 48 199 0.9 1.7 0.00 0.00 0.00 80 1010.9
20260509084200 48 199 0.9 0.9 0.00 0.00 0.00 79 1010.9
20260509083659 48 198 0.0 0.0 0.00 0.00 0.00 77 1010.8
20260509083154 48 198 0.0 0.0 0.00 0.00 0.00 78 1010.7
20260509082651 48 199 0.9 0.9 0.00 0.00 0.00 79 1010.6
20260509082148 48 272 0.0 0.0 0.00 0.00 0.00 80 1010.8
20260509081645 50 272 0.0 0.0 0.00 0.00 0.00 76 1010.5
20260509081142 50 195 0.0 0.0 0.00 0.00 0.00 69 1010.3
20260509080641 51 198 0.9 0.9 0.00 0.00 0.00 69 1010.3
20260509080138 51 156 0.0 0.9 0.00 0.00 0.00 68 1010.2
20260509075636 51 156 1.7 1.7 0.00 0.00 0.00 68 1010.3
20260509075134 50 170 1.7 1.7 0.00 0.00 0.00 68 1010.0
20260509074630 51 162 1.7 1.7 0.00 0.00 0.00 68 1010.2
20260509074126 50 160 2.6 2.6 0.00 0.00 0.00 68 1010.3
20260509073623 50 164 1.7 1.7 0.00 0.00 0.00 69 1010.3
20260509073120 50 177 2.6 2.6 0.00 0.00 0.00 70 1010.4
20260509072617 50 178 1.7 2.6 0.00 0.00 0.00 70 1010.4
20260509072114 50 156 3.5 3.5 0.00 0.00 0.00 70 1010.4
20260509071610 50 190 3.5 3.5 0.00 0.00 0.00 71 1010.3
20260509071108 49 143 3.5 6.1 0.00 0.00 0.00 73 1010.2
20260509070605 48 166 2.6 3.5 0.00 0.00 0.00 75 1010.3
20260509070101 48 162 1.7 2.6 0.00 0.00 0.00 77 1010.4
20260509065556 47 178 1.7 1.7 0.00 0.00 0.00 79 1010.1
20260509065052 47 158 1.7 2.6 0.00 0.00 0.00 80 1010.2
20260509064550 47 160 1.7 1.7 0.00 0.00 0.00 80 1010.2
20260509064048 46 168 2.6 2.6 0.00 0.00 0.00 81 1010.2
20260509063544 46 359 0.0 0.0 0.00 0.00 0.00 83 1010.4
20260509063041 46 349 0.0 0.0 0.00 0.00 0.00 81 1010.3
20260509062538 46 153 1.7 1.7 0.00 0.00 0.00 82 1010.6
20260509062036 46 165 0.9 0.9 0.00 0.00 0.00 84 1010.8
20260509061532 46 152 0.0 0.9 0.00 0.00 0.00 85 1010.8
20260509061030 46 152 0.0 0.0 0.00 0.00 0.00 85 1010.9
20260509060527 46 152 0.0 0.0 0.00 0.00 0.00 85 1011.0
20260509060023 46 152 0.0 0.0 0.00 0.00 0.00 85 1011.3
20260509055518 46 152 0.0 0.0 0.00 0.00 0.00 83 1011.0
20260509055015 46 143 0.9 0.9 0.00 0.00 0.00 83 1011.0
20260509054511 46 147 0.9 0.9 0.00 0.00 0.00 84 1011.3
20260509054010 46 145 1.7 1.7 0.00 0.00 0.00 84 1011.4
20260509053508 48 137 0.0 0.0 0.00 0.00 0.00 81 1011.5
20260509053004 48 118 0.0 0.0 0.00 0.00 0.00 80 1011.5
20260509052502 48 118 0.0 0.0 0.00 0.00 0.00 80 1011.7
20260509052000 48 122 0.0 0.0 0.00 0.00 0.00 81 1011.6
20260509051457 48 121 0.0 0.0 0.00 0.00 0.00 81 1011.8
20260509050954 48 131 0.0 0.0 0.00 0.00 0.00 80 1011.7
20260509050450 49 132 0.0 0.0 0.00 0.00 0.00 80 1011.7
20260509045947 49 132 0.0 0.0 0.00 0.00 0.00 79 1012.0
20260509045445 49 132 0.0 0.0 0.00 0.00 0.00 80 1011.7
20260509044941 49 351 0.0 0.0 0.00 0.00 0.00 80 1011.6
20260509044439 49 105 0.0 0.0 0.00 0.00 0.00 78 1011.8
20260509043936 50 137 0.0 0.0 0.00 0.00 0.00 76 1011.6
20260509043432 50 91 0.0 0.0 0.00 0.00 0.00 76 1011.9
20260509042927 50 174 0.9 0.9 0.00 0.00 0.00 76 1011.7
20260509042425 50 159 1.7 1.7 0.00 0.00 0.00 76 1011.7
20260509041921 50 155 0.9 1.7 0.00 0.00 0.00 76 1011.8
20260509041418 50 142 0.0 0.0 0.00 0.00 0.00 76 1011.7
20260509040916 50 143 0.0 0.0 0.00 0.00 0.00 75 1011.8
20260509040414 49 143 0.0 0.0 0.00 0.00 0.00 78 1012.0
20260509035910 48 144 0.0 0.9 0.00 0.00 0.00 81 1012.1
20260509035407 49 149 1.7 1.7 0.00 0.00 0.00 80 1012.2
20260509034903 49 143 0.9 0.9 0.00 0.00 0.00 78 1012.1
20260509034401 49 352 0.0 0.0 0.00 0.00 0.00 78 1012.1
20260509033858 49 128 0.0 0.0 0.00 0.00 0.00 78 1012.2
20260509033355 49 128 0.0 0.0 0.00 0.00 0.00 78 1011.9
20260509032852 50 128 0.0 0.0 0.00 0.00 0.00 78 1012.0
20260509032349 50 59 0.0 0.0 0.00 0.00 0.00 76 1012.1
20260509031848 51 76 0.9 0.9 0.00 0.00 0.00 74 1011.9
20260509031344 51 168 0.0 0.0 0.00 0.00 0.00 70 1011.9
20260509030842 51 176 0.9 0.9 0.00 0.00 0.00 70 1011.9
20260509030340 51 166 0.9 0.9 0.00 0.00 0.00 72 1012.0
20260509025836 51 166 0.0 0.0 0.00 0.00 0.00 70 1012.0
20260509025331 51 166 0.9 0.9 0.00 0.00 0.00 70 1012.1
20260509024827 51 167 0.0 0.0 0.00 0.00 0.00 72 1012.1
20260509024324 52 164 0.9 0.9 0.00 0.00 0.00 68 1012.0
20260509023821 52 157 0.9 1.7 0.00 0.00 0.00 67 1012.1
20260509023318 53 179 0.0 0.0 0.00 0.00 0.00 66 1012.1
20260509022815 53 179 0.0 0.0 0.00 0.00 0.00 63 1012.0
20260509022312 53 170 0.9 1.7 0.00 0.00 0.00 64 1012.0
20260509021809 53 170 0.9 1.7 0.00 0.00 0.00 64 1012.0
20260509021306 52 173 0.9 0.9 0.00 0.00 0.00 64 1012.0
20260509020803 52 187 0.9 0.9 0.00 0.00 0.00 64 1011.9
20260509020301 52 176 1.7 1.7 0.00 0.00 0.00 65 1011.9
20260509015759 52 171 1.7 1.7 0.00 0.00 0.00 65 1012.0
20260509015257 52 192 1.7 1.7 0.00 0.00 0.00 64 1011.8
20260509014753 52 168 1.7 1.7 0.00 0.00 0.00 63 1011.8
20260509014250 53 172 0.9 1.7 0.00 0.00 0.00 63 1011.9
20260509013747 53 186 1.7 1.7 0.00 0.00 0.00 63 1012.0
20260509013242 53 164 1.7 1.7 0.00 0.00 0.00 65 1011.8
20260509012739 52 167 1.7 1.7 0.00 0.00 0.00 65 1012.0
20260509012236 52 166 0.0 0.0 0.00 0.00 0.00 69 1011.9
20260509011733 51 166 0.0 0.0 0.00 0.00 0.00 68 1012.1
20260509011231 51 166 0.0 0.0 0.00 0.00 0.00 70 1011.8
20260509010729 52 166 0.0 0.0 0.00 0.00 0.00 70 1011.8
20260509010225 52 166 0.0 0.0 0.00 0.00 0.00 69 1012.0
20260509005723 52 166 0.0 0.0 0.00 0.00 0.00 69 1011.9
20260509005220 52 166 0.0 0.0 0.00 0.00 0.00 67 1011.9
20260509004719 53 166 0.0 0.0 0.00 0.00 0.00 68 1011.6
20260509004217 53 164 1.7 1.7 0.00 0.00 0.00 66 1011.6
20260509003715 53 166 0.9 0.9 0.00 0.00 0.00 65 1011.7
20260509003213 53 168 1.7 1.7 0.00 0.00 0.00 65 1011.5
20260509002710 53 166 1.7 2.6 0.00 0.00 0.00 65 1011.7
20260509002207 53 160 0.9 0.9 0.00 0.00 0.00 63 1011.7
20260509001705 53 159 0.9 0.9 0.00 0.00 0.00 64 1011.6
20260509001200 53 136 0.0 0.0 0.00 0.00 0.00 65 1011.7
20260509000659 53 135 0.0 0.0 0.00 0.00 0.00 63 1011.7
20260509000155 53 135 0.0 0.0 0.00 0.00 0.00 62 1011.9
20260508235652 53 161 0.0 0.9 0.00 0.00 0.00 62 1011.6
20260508235149 54 143 0.9 0.9 0.00 0.00 0.00 62 1011.5
20260508234646 54 133 0.0 0.0 0.00 0.00 0.00 62 1011.7
20260508234143 54 133 0.0 0.0 0.00 0.00 0.00 61 1011.6
20260508233642 55 133 0.0 0.0 0.00 0.00 0.00 61 1011.5
20260508233140 55 133 0.0 0.0 0.00 0.00 0.00 61 1011.4
20260508232637 54 134 0.0 0.0 0.00 0.00 0.00 61 1011.3
20260508232133 54 132 0.0 0.9 0.00 0.00 0.00 66 1011.4
20260508231631 55 102 0.0 0.0 0.00 0.00 0.00 61 1011.5
20260508231128 55 102 0.0 0.0 0.00 0.00 0.00 61 1011.2
20260508230624 55 102 0.0 0.0 0.00 0.00 0.00 60 1011.3
20260508230121 55 102 0.0 0.0 0.00 0.00 0.00 60 1011.3
20260508225619 55 102 0.0 0.0 0.00 0.00 0.00 59 1011.2
20260508225115 56 101 0.0 0.0 0.00 0.00 0.00 58 1011.4
20260508224613 56 101 0.0 0.0 0.00 0.00 0.00 57 1011.3
20260508224110 56 12 0.0 0.0 0.00 0.00 0.00 55 1011.3
20260508223608 57 10 0.0 0.0 0.00 0.00 0.00 54 1011.4
20260508223105 57 123 0.0 0.0 0.00 0.00 0.00 56 1011.4
20260508222602 57 124 0.0 0.0 0.00 0.00 0.00 52 1011.6
20260508222059 58 88 0.9 1.7 0.00 0.00 0.00 53 1011.6
20260508221555 57 85 0.0 0.0 0.00 0.00 0.00 53 1011.7
20260508221051 55 113 0.0 0.0 0.00 0.00 0.00 55 1011.5
20260508220548 57 122 0.0 0.0 0.00 0.00 0.00 57 1011.6
20260508220044 57 145 0.9 0.9 0.00 0.00 0.00 55 1011.8
20260508215541 57 114 0.0 0.0 0.00 0.00 0.00 54 1011.8
20260508215038 56 133 0.0 0.0 0.00 0.00 0.00 58 1012.0
20260508214535 55 356 0.0 0.9 0.00 0.00 0.00 59 1011.9
20260508214031 55 356 0.9 0.9 0.00 0.00 0.00 58 1011.9
20260508213529 55 356 0.0 0.0 0.00 0.00 0.00 58 1012.1
20260508213024 55 308 0.0 0.9 0.00 0.00 0.00 56 1012.0
20260508212521 55 256 0.0 0.0 0.00 0.00 0.00 57 1012.1
20260508212018 55 256 0.0 0.0 0.00 0.00 0.00 58 1012.0
20260508211513 55 333 0.0 0.0 0.00 0.00 0.00 61 1012.1
20260508211010 54 333 0.0 0.0 0.00 0.00 0.00 60 1012.3
20260508210506 54 335 0.9 1.7 0.00 0.00 0.00 62 1012.4
20260508210004 54 325 0.0 0.0 0.00 0.00 0.00 61 1012.3
20260508205500 54 309 0.0 0.0 0.00 0.00 0.00 62 1012.3
20260508204957 54 286 0.0 0.9 0.00 0.00 0.00 60 1012.3
20260508204454 54 327 0.0 0.0 0.00 0.00 0.00 61 1012.5
20260508203949 54 347 0.9 0.9 0.00 0.00 0.00 59 1012.6
20260508203446 54 297 0.0 0.0 0.00 0.00 0.00 59 1012.5
20260508202941 54 258 0.9 0.9 0.00 0.00 0.00 56 1012.9
20260508202439 55 338 2.6 2.6 0.00 0.00 0.00 56 1012.7
20260508201936 55 271 0.9 0.9 0.00 0.00 0.00 57 1012.9